SCP
0 0 0 -0 -0 -0 0 -0 -0 0 0 0 0 0 0 0 0 0 0 0 0 0 0 0 0 0 0
0 0 0 -0 -0 -0 -0 -0 -0 0 0 0 0 0 0 0 0 0 0 0 0 0 0 0 0 0 0
0 0 0 -0 -0 -0 -0 -0 -0 -0 0 0 0 0 0 0 0 0 -0 0 0 0 0 0 0 0 0
0 -0 -0 -0 -0 -0 -0 -0 -0 -0 0 0 0 0 0 0 0 0 0 0 0 0 0 0 0 0 0
0 -0 -0 -0 -0 -0 -0 -0 0 -0 0 0 0 0 0 0 0 0 0 0 0 0 0 0 0 0 0
0 0 0 0 -0 -0 -0 -0 -0 -0 0 0 0 0 0 0 0 0 0 0 0 0 0 0 0 0 0
0 0 -0 -0 -0 -0 -0 -0 0 -0 0 0 0 0 0 0 0 0 0 0 0 0 0 0 0 0 0
0 0 -0 -0 -0 -0 -0 -0 -0 -0 0 0 0 0 0 0 0 0 0 0 0 0 0 0 0 0 0
0 0 0 0 -0 -0 -0 -0 -0 -0 0 0 0 0 0 0 0 0 0 0 0 0 0 0 0 0 0
0 0 -0 -0 0 -0 -0 -0 -0 -0 0 0 0 0 0 0 0 0 0 0 0 0 0 0 0 0 0
-0 -0 -0 -0 -0 -0 -0 -0 -0 -0 0 0 0 0 0 0 0 0 0 0 0 0 0 0 0 0 0
-0 -0 -0 -0 0 0 -0 -0 0 0 0 0 0 0 0 0 0 0 0 0 0 0 0 0 0 0 0
-0 0 0 0 0 -0 -0 0 0 0 0 0 0 0 0 0 0 0 0 0 0 0 0 0 0 0 0
-0 0 -0 -0 -0 -0 -0 -0 -0 -0 0 0 0 0 0 0 0 0 0 0 0 0 0 0 0 0 0
-0 -0 -0 -0 -0 -0 -0 0 0 0 0 0 0 0 0 0 0 0 0 0 0 0 0 0 0 0 0
-0 -0 -0 -0 -0 -0 -0 0 0 0 0 0 0 0 0 0 0 0 0 0 0 0 0 0 0 0 0
-0 -0 -0 0 -0 -0 0 0 0 0 0 0 0 0 0 0 0 0 0 0 0 0 0 0 0 0 0
Wind_Speed_500mb
88 88 93 101 97 94 92 88 115 110 89 69 76 79 121 116 117 108 96 95 90 78 74 67 62 60 54
91 90 89 91 96 99 98 92 91 114 94 77 74 80 110 108 135 116 108 104 92 84 75 70 66 61 49
94 84 92 94 96 98 97 94 85 108 108 87 66 82 108 145 140 133 120 108 96 86 78 72 63 52 44
91 96 87 95 84 90 102 96 97 84 103 79 68 80 111 152 140 132 125 115 98 91 85 72 61 55 50
94 86 87 92 85 89 96 106 100 79 90 64 82 88 142 151 149 139 129 115 103 95 83 75 66 62 53
90 87 98 84 83 92 94 96 104 72 79 78 77 120 144 166 152 133 121 112 102 94 88 76 71 66 62
84 91 95 99 89 85 84 91 104 77 77 70 105 126 135 150 149 138 118 107 104 97 83 74 73 68 56
82 89 92 92 83 82 88 94 99 89 83 65 102 111 118 141 144 132 122 111 101 87 80 81 74 61 54
75 80 83 87 83 81 90 86 94 90 65 58 103 108 111 128 122 110 110 106 95 86 90 82 75 63 58
90 94 90 91 86 79 79 86 80 81 55 45 113 123 87 98 116 109 101 94 90 87 87 87 76 69 66
99 106 103 98 91 83 76 72 82 83 64 60 90 102 95 122 112 108 99 94 94 91 87 80 76 73 73
97 100 99 98 89 81 75 73 85 76 73 82 71 124 112 99 112 105 101 101 101 97 89 76 72 68 65
101 101 100 96 90 86 78 76 79 64 77 78 76 63 147 150 128 125 121 107 104 100 92 87 81 77 74
90 93 92 89 87 81 76 68 74 66 89 86 105 71 87 131 157 135 130 104 112 105 99 87 82 78 76
83 87 84 81 84 77 61 75 80 75 98 110 118 76 71 119 135 142 136 106 120 111 102 93 83 78 72
82 82 81 81 81 75 66 85 83 101 108 124 92 92 76 82 105 144 131 114 124 109 99 93 88 79 70
82 80 75 77 76 73 67 74 89 107 111 126 112 111 101 86 91 110 144 120 125 108 98 93 93 85 76
Wind_Direction_500mb
301 308 309 309 308 307 304 294 272 272 280 254 249 246 216 208 197 197 191 188 185 183 182 176 173 175 182
307 309 308 307 307 307 307 301 289 269 277 275 242 251 222 215 203 196 191 189 184 182 180 176 176 181 182
302 305 304 308 309 306 309 308 307 269 271 277 246 237 228 202 194 191 188 186 185 183 180 178 180 178 178
297 301 305 307 311 310 309 308 306 272 269 270 255 246 218 202 198 191 187 184 186 186 184 179 177 175 177
294 299 301 304 307 309 307 309 306 283 273 255 246 235 197 196 192 189 185 184 184 186 179 175 180 180 177
289 289 296 297 296 297 303 305 308 274 296 242 241 197 184 189 188 183 182 181 183 181 177 175 185 183 185
282 285 287 286 297 299 298 299 299 290 315 208 186 174 176 184 185 180 182 182 183 180 173 179 189 184 181
288 287 287 290 292 294 294 291 291 281 286 194 170 167 170 175 180 179 180 180 179 173 175 186 185 175 189
287 282 280 280 280 283 281 285 286 286 290 193 166 158 159 166 177 180 176 174 174 179 185 185 180 178 192
298 292 286 281 279 274 270 266 273 285 264 183 156 152 139 157 171 175 172 169 177 183 189 185 175 185 187
288 285 285 284 285 285 282 269 267 265 256 191 171 160 161 160 168 172 172 176 183 184 189 178 179 191 185
286 289 288 287 288 287 283 271 266 261 245 197 193 170 166 160 162 173 177 181 180 176 175 175 186 187 190
288 286 286 288 287 282 278 272 265 255 236 224 201 193 176 171 168 171 173 177 178 175 173 181 183 184 181
289 288 288 286 284 279 272 268 265 246 232 223 197 199 178 174 176 170 174 167 178 177 175 183 182 184 184
289 289 288 288 282 279 269 259 258 236 213 212 197 198 189 177 169 172 175 175 176 175 178 182 182 183 183
290 289 290 289 282 276 260 255 256 205 202 200 191 182 176 168 177 172 175 175 176 176 181 181 177 180 179
292 292 291 287 281 271 256 260 208 195 188 189 184 179 162 160 175 186 184 179 175 177 183 185 178 177 179
Wind_Speed_850mb
88 88 93 101 97 94 92 88 115 110 89 69 76 79 121 116 117 108 96 95 90 78 74 67 62 60 54
91 90 89 91 96 99 98 92 91 114 94 77 74 80 110 108 135 116 108 104 92 84 75 70 66 61 49
94 84 92 94 96 98 97 94 85 108 108 87 66 82 108 145 140 133 120 108 96 86 78 72 63 52 44
91 96 87 95 84 90 102 96 97 84 103 79 68 80 111 152 140 132 125 115 98 91 85 72 61 55 50
94 86 87 92 85 89 96 106 100 79 90 64 82 88 142 151 149 139 129 115 103 95 83 75 66 62 53
90 87 98 84 83 92 94 96 104 72 79 78 77 120 144 166 152 133 121 112 102 94 88 76 71 66 62
84 91 95 99 89 85 84 91 104 77 77 70 105 126 135 150 149 138 118 107 104 97 83 74 73 68 56
82 89 92 92 83 82 88 94 99 89 83 65 102 111 118 141 144 132 122 111 101 87 80 81 74 61 54
75 80 83 87 83 81 90 86 94 90 65 58 103 108 111 128 122 110 110 106 95 86 90 82 75 63 58
90 94 90 91 86 79 79 86 80 81 55 45 113 123 87 98 116 109 101 94 90 87 87 87 76 69 66
99 106 103 98 91 83 76 72 82 83 64 60 90 102 95 122 112 108 99 94 94 91 87 80 76 73 73
97 100 99 98 89 81 75 73 85 76 73 82 71 124 112 99 112 105 101 101 101 97 89 76 72 68 65
101 101 100 96 90 86 78 76 79 64 77 78 76 63 147 150 128 125 121 107 104 100 92 87 81 77 74
90 93 92 89 87 81 76 68 74 66 89 86 105 71 87 131 157 135 130 104 112 105 99 87 82 78 76
83 87 84 81 84 77 61 75 80 75 98 110 118 76 71 119 135 142 136 106 120 111 102 93 83 78 72
82 82 81 81 81 75 66 85 83 101 108 124 92 92 76 82 105 144 131 114 124 109 99 93 88 79 70
82 80 75 77 76 73 67 74 89 107 111 126 112 111 101 86 91 110 144 120 125 108 98 93 93 85 76
Wind_Direction_850mb
301 308 309 309 308 307 304 294 272 272 280 254 249 246 216 208 197 197 191 188 185 183 182 176 173 175 182
307 309 308 307 307 307 307 301 289 269 277 275 242 251 222 215 203 196 191 189 184 182 180 176 176 181 182
302 305 304 308 309 306 309 308 307 269 271 277 246 237 228 202 194 191 188 186 185 183 180 178 180 178 178
297 301 305 307 311 310 309 308 306 272 269 270 255 246 218 202 198 191 187 184 186 186 184 179 177 175 177
294 299 301 304 307 309 307 309 306 283 273 255 246 235 197 196 192 189 185 184 184 186 179 175 180 180 177
289 289 296 297 296 297 303 305 308 274 296 242 241 197 184 189 188 183 182 181 183 181 177 175 185 183 185
282 285 287 286 297 299 298 299 299 290 315 208 186 174 176 184 185 180 182 182 183 180 173 179 189 184 181
288 287 287 290 292 294 294 291 291 281 286 194 170 167 170 175 180 179 180 180 179 173 175 186 185 175 189
287 282 280 280 280 283 281 285 286 286 290 193 166 158 159 166 177 180 176 174 174 179 185 185 180 178 192
298 292 286 281 279 274 270 266 273 285 264 183 156 152 139 157 171 175 172 169 177 183 189 185 175 185 187
288 285 285 284 285 285 282 269 267 265 256 191 171 160 161 160 168 172 172 176 183 184 189 178 179 191 185
286 289 288 287 288 287 283 271 266 261 245 197 193 170 166 160 162 173 177 181 180 176 175 175 186 187 190
288 286 286 288 287 282 278 272 265 255 236 224 201 193 176 171 168 171 173 177 178 175 173 181 183 184 181
289 288 288 286 284 279 272 268 265 246 232 223 197 199 178 174 176 170 174 167 178 177 175 183 182 184 184
289 289 288 288 282 279 269 259 258 236 213 212 197 198 189 177 169 172 175 175 176 175 178 182 182 183 183
290 289 290 289 282 276 260 255 256 205 202 200 191 182 176 168 177 172 175 175 176 176 181 181 177 180 179
292 292 291 287 281 271 256 260 208 195 188 189 184 179 162 160 175 186 184 179 175 177 183 185 178 177 179